This is the latest recevied weather packets stored in our database for station/object WB0OCV. If no packets are shown the sender has not sent any weather packets the latest 10 day(s).
| Time | Temp. | Humidity | Pressure | Rain* | Wind** | Luminosity | Snow |
|---|---|---|---|---|---|---|---|
| 1777773567 | 9.44° C | 99% | 1012.8 hPa | 3.05 mm | - | 0 W/m² | - |
| 1777773264 | 9.44° C | 99% | 1013 hPa | 4.32 mm | - | 0 W/m² | - |
| 1777772960 | 9.44° C | 99% | 1013 hPa | 4.83 mm | - | 0 W/m² | - |
| 1777772658 | 9.44° C | 99% | 1012.9 hPa | 4.83 mm | - | 0 W/m² | - |
| 1777772356 | 9.44° C | 99% | 1013 hPa | 4.32 mm | - | 0 W/m² | - |
| 1777772052 | 9.44° C | 99% | 1013.2 hPa | 3.05 mm | - | 0 W/m² | - |
| 1777771749 | 9.44° C | 99% | 1012.9 hPa | 4.83 mm | - | 0 W/m² | - |
| 1777771448 | 9.44° C | 99% | 1012.9 hPa | 3.05 mm | - | 0 W/m² | - |
| 1777771143 | 9.44° C | 98% | 1013 hPa | 3.05 mm | - | 0 W/m² | - |
| 1777770840 | 9.44° C | 98% | 1013 hPa | 3.56 mm | - | 0 W/m² | - |
| 1777770537 | 9.44° C | 98% | 1012.8 hPa | 3.05 mm | - | 0 W/m² | - |
| 1777770234 | 9.44° C | 98% | 1013 hPa | 3.05 mm | - | 0 W/m² | - |
| 1777769931 | 9.44° C | 98% | 1012.7 hPa | 1.78 mm | - | 0 W/m² | - |
| 1777769629 | 9.44° C | 98% | 1013 hPa | 1.27 mm | - | 0 W/m² | - |
| 1777769324 | 9.44° C | 98% | 1013 hPa | 3.05 mm | - | 0 W/m² | - |
| 1777769022 | 9.44° C | 98% | 1012.9 hPa | 3.05 mm | - | 0 W/m² | - |
| 1777768719 | 9.44° C | 98% | 1013.1 hPa | 3.05 mm | - | 0 W/m² | - |
| 1777768416 | 9.44° C | 98% | 1013 hPa | 3.05 mm | - | 0 W/m² | - |
| 1777768113 | 9.44° C | 98% | 1013.1 hPa | 1.27 mm | - | 0 W/m² | - |
| 1777767810 | 9.44° C | 98% | 1013 hPa | 0 mm | - | 0 W/m² | - |
| 1777767507 | 9.44° C | 97% | 1013 hPa | 0 mm | - | 0 W/m² | - |
| 1777767203 | 9.44° C | 97% | 1012.9 hPa | 0 mm | - | 0 W/m² | - |
| 1777766900 | 9.44° C | 97% | 1013 hPa | 0 mm | - | 0 W/m² | - |
| 1777766598 | 9.44° C | 97% | 1012.9 hPa | 1.78 mm | - | 0 W/m² | - |
| 1777766295 | 9.44° C | 97% | 1012.9 hPa | 1.78 mm | - | 0 W/m² | - |
* Rain latest hour (hover to see other rain measurements)
** Current wind speed in m/s (hover to see current wind gust speed)